Location: Civry
(47.2902°N, 4.6156°E)
Time: 07:45:25
(UTC+00:00)

Mayak - Visible Passes

Search period start: 11 August 2020 00:00
Search period end: 21 August 2020 00:00
Orbit: 580 x 602 km, 97.5° (Epoch: 11 August)

Date Brightness Start Highest point End Pass type
(mag) Time Alt. Az. Time Alt. Az. Time Alt. Az.
11 Aug ? 21:43:12 10° NNE 21:47:21 78° E 21:47:29 77° SE visible
11 Aug ? 23:20:34 10° NW 23:22:20 13° WNW 23:24:02 10° W visible
12 Aug ? 21:51:27 10° NNE 21:55:36 86° W 21:55:43 83° SW visible
12 Aug ? 23:29:42 10° NW 23:30:28 10° WNW 23:31:14 10° WNW visible
13 Aug ? 20:26:10 10° ENE 20:27:24 12° E 20:27:24 12° E visible
13 Aug ? 21:59:42 10° N 22:03:50 70° WNW 22:03:57 70° W visible
14 Aug ? 20:33:47 10° NE 20:35:38 14° E 20:35:38 14° E visible
14 Aug ? 22:08:00 10° N 22:12:04 57° WNW 22:12:11 57° W visible
15 Aug ? 20:41:37 10° NE 20:43:51 17° E 20:43:51 17° E visible
15 Aug ? 22:16:18 10° N 22:20:17 46° WNW 22:20:24 46° WNW visible
16 Aug ? 20:49:34 10° NE 20:52:05 21° ENE 20:52:05 21° ENE visible
16 Aug ? 22:24:38 10° N 22:28:29 38° WNW 22:28:38 38° WNW visible
17 Aug ? 20:57:36 10° NE 21:00:18 24° ENE 21:00:18 24° ENE visible
17 Aug ? 22:32:59 10° N 22:36:41 32° WNW 22:36:51 32° WNW visible
18 Aug ? 21:05:40 10° NNE 21:08:31 28° ENE 21:08:31 28° ENE visible
18 Aug ? 22:41:22 10° N 22:44:52 27° WNW 22:45:04 26° WNW visible
19 Aug ? 21:13:47 10° NNE 21:16:44 33° ENE 21:16:44 33° ENE visible
19 Aug ? 22:49:47 10° NNW 22:53:02 22° WNW 22:53:17 22° WNW visible
20 Aug ? 21:21:55 10° NNE 21:24:57 38° ENE 21:24:57 38° ENE visible
20 Aug ? 22:58:15 10° NNW 23:01:12 19° WNW 23:01:30 19° WNW visible
